[[{"header":{"parameterUnit":"m.s-1","parameterCategory":1,"la1":30.2991,"la2":30.254,"lo1":-89.0895,"lo2":-89.0444,"dy":0.0017,"dx":0.0017,"nx":28,"ny":28,"refTime":"2025-01-31T03:00:00:Z","depth":0,"parameterNumber":2,"parameterNumberName":"U-component_of_WINDS"},"data":[0,0,0,0,0,0,0,0,0,0,0,0,0,0,0,0,0,0,0,0,0,0,0,0,0,0,0,0,0,0,0,0,0,0,0,0,0,0,0,0,0,0,0,0,0,0,0,0,0,0,0,0,0,0,0,0,0,0,1.9181,1.9177,0,1.8836,1.8832,1.8828,1.8628,1.8628,1.8627,1.8626,1.8274,1.8265,1.8257,0,0,0,0,0,0,0,0,0,0,0,0,0,1.9668,1.9661,1.9181,1.9177,1.9173,1.8837,1.8832,1.8827,1.8629,1.8628,1.8627,1.8626,1.8276,1.8266,1.8256,0,0,0,0,0,0,0,0,0,0,0,0,0,1.9404,1.9658,1.9182,1.9033,1.9016,1.8838,1.8832,1.8826,1.8629,1.8628,1.8626,1.8625,1.828,1.8267,1.8254,1.8198,0,0,1.8215,1.8209,0,0,0,0,0,0,0,0,1.9419,1.9386,1.9059,1.9043,1.9024,1.8774,1.8874,1.8616,1.8629,1.8776,1.8626,1.8625,1.8441,1.8415,1.8353,1.8181,1.8166,1.8214,1.8206,1.82,1.8196,0,0,0,0,0,0,0,1.9438,1.94,1.9045,1.9055,1.9033,1.8984,1.8945,1.8824,1.8619,1.8763,1.8748,1.871,1.8431,1.8366,1.8343,1.8161,1.8214,1.8202,1.8194,1.8189,1.7927,1.7927,0,0,0,0,0,0,1.948,1.9416,1.9056,1.9034,1.9223,1.8976,1.8932,1.8856,1.862,1.8583,1.8711,1.8702,1.8389,1.8358,1.833,1.8248,1.82,1.8188,1.8181,1.7926,1.7927,1.7928,0,0,0,0,0,0,1.9491,1.9449,1.907,1.9221,1.9169,1.8969,1.8884,1.8849,1.8783,1.8581,1.8543,1.8682,1.8386,1.8348,1.8232,1.8233,1.8182,1.817,1.7925,1.7926,1.7927,1.8086,0,0,0,0,0,0,1.9506,1.9455,1.9431,1.9222,1.9162,1.8978,1.8884,1.8843,1.8762,1.8746,1.8543,1.8509,1.8383,1.8253,1.8219,1.8215,1.816,1.7924,1.7925,1.7927,1.8079,1.8092,1.8103,0,0,0,0,0,1.9524,1.9489,1.9431,1.9388,1.9128,1.8978,1.8944,1.8799,1.8763,1.8737,1.8607,1.8515,1.8239,1.8243,1.8203,1.8195,1.7923,1.7925,1.7927,1.8074,1.809,1.8103,0,0,0,0,0,0,1.9703,1.9459,1.9391,1.9288,1.9156,1.8945,1.8908,1.882,1.8695,1.8686,1.8512,1.8468,1.837,1.827,1.8279,1.8128,1.8071,1.8065,1.8197,1.8209,1.8221,1.8247,1.8149,0,0,0,0,0,1.973,1.9629,1.9422,1.935,1.9287,1.911,1.904,1.894,1.8796,1.8739,1.86,1.8464,1.8346,1.8272,1.8153,1.8064,1.8018,1.8039,1.8051,1.8062,1.8059,1.8006,1.8013,1.7934,1.7934,1.7934,0,0,1.9786,1.964,1.9587,1.9383,1.9268,1.9168,1.9064,1.8962,1.8886,1.8723,1.8605,1.8499,1.8336,1.8234,1.8182,1.8148,1.807,1.8064,1.8074,1.8065,1.8008,1.8016,1.8023,1.7935,1.7935,1.7934,0,0,1.9836,1.9715,1.9643,1.9531,1.9359,1.9242,1.9225,1.9027,1.8951,1.883,1.8706,1.8613,1.8414,1.8303,1.8221,1.8231,1.8142,1.8197,1.8259,1.8209,1.8215,1.822,1.8224,1.8228,1.8195,1.8195,1.8195,0,1.9927,1.977,1.9617,1.9522,1.9437,1.9285,1.9211,1.9109,1.8908,1.8853,1.8817,1.8565,1.8444,1.8315,1.8318,1.8256,1.8232,1.8219,1.8227,1.823,1.8232,1.8234,1.8236,1.8203,1.8202,1.8201,1.82,0,1.9891,1.9785,1.9747,1.9557,1.9466,1.9383,1.9218,1.9145,1.9054,1.8941,1.882,1.867,1.8518,1.848,1.839,1.8338,1.8322,1.826,1.8199,1.825,1.8249,1.8249,1.8214,1.8211,1.8209,1.8207,0,0,2.0043,1.977,1.9759,1.9671,1.9471,1.9386,1.9296,1.9148,1.9089,1.8956,1.8877,1.8713,1.8653,1.856,1.8456,1.8412,1.8431,1.8354,1.8347,1.8374,1.8366,1.8416,1.8419,1.8371,1.8371,1.837,1.838,0,2.0064,1.9895,1.9755,1.9638,1.9539,1.9394,1.9315,1.9185,1.9077,1.8977,1.8858,1.8745,1.8674,1.8617,1.8568,1.844,1.8428,1.8437,1.8296,1.8293,1.8342,1.8418,1.8469,1.8485,1.8379,1.8379,1.8378,0,2.0066,1.9939,1.9813,1.9624,1.9577,1.9509,1.9362,1.9269,1.9118,1.9043,1.894,1.8832,1.8731,1.8681,1.854,1.855,1.8484,1.8413,1.841,1.8391,1.8339,1.8402,1.8487,1.849,1.8376,1.8376,1.8377,0,2.0191,1.9988,1.9886,1.9816,1.9593,1.9549,1.9454,1.9302,1.9222,1.9094,1.9041,1.8903,1.8828,1.8724,1.8582,1.8559,1.8457,1.8395,1.8392,1.8396,1.8377,1.838,1.8453,1.8335,1.8335,1.8335,1.8335,0,2.0229,2.0158,1.9939,1.9877,1.9793,1.9633,1.9555,1.9447,1.9314,1.9229,1.9095,1.9018,1.8835,1.8736,1.8624,1.8525,1.8492,1.8429,1.84,1.844,1.8449,1.8395,1.839,1.8335,1.8335,1.8335,1.8335,0,2.0354,2.0205,2.0085,1.9884,1.9832,1.9779,1.9607,1.9542,1.9427,1.9321,1.9287,1.9107,1.8983,1.8831,1.8659,1.8584,1.8497,1.8453,1.8548,1.8531,1.8537,1.8539,1.8578,1.8575,1.8461,1.8462,1.8464,0,2.0389,2.0331,2.0124,2.0058,1.9967,1.9861,1.9779,1.962,1.9541,1.9366,1.9321,1.9188,1.9073,1.8883,1.8737,1.8605,1.8557,1.858,1.8536,1.858,1.8558,1.8563,1.8557,1.8592,1.8594,1.8595,1.8597,0,2.0467,2.0396,2.0283,2.0144,2.0051,1.9934,1.9811,1.9764,1.958,1.9498,1.937,1.9281,1.9106,1.8975,1.8825,1.8727,1.8632,1.8612,1.8604,1.8645,1.8703,1.8672,1.8579,1.8611,1.861,1.8609,1.8608,1.8607,2.0547,2.0489,2.0335,2.0214,2.0105,1.9994,1.9923,1.98,1.969,1.9535,1.9448,1.9324,1.9175,1.8963,1.887,1.8771,1.8736,1.8725,1.8722,1.8722,1.8735,1.8719,1.8743,1.8742,1.8741,1.8741,1.874,0,2.0618,2.0512,2.0402,2.0235,2.0141,2.0059,1.992,1.9846,1.9738,1.9607,1.9497,1.9352,1.9225,1.907,1.8933,1.8883,1.8836,1.8852,1.8854,1.8834,1.8773,1.8794,1.8893,1.8893,1.8893,1.8893,1.8893,1.8893,2.0644,2.0541,2.0453,2.0296,2.019,2.0067,1.9994,1.9891,1.9787,1.963,1.9524,1.9424,1.9284,1.9136,1.9016,1.8973,1.893,1.896,1.8905,1.8851,1.8838,1.8825,1.8843,1.8951,1.8952,1.8973,1.8973,1.8973]},{"header":{"parameterUnit":"m.s-1","parameterCategory":1,"la1":30.2991,"la2":30.254,"lo1":-89.0895,"lo2":-89.0444,"dy":0.0017,"dx":0.0017,"nx":28,"ny":28,"refTime":"2025-01-31T03:00:00:Z","depth":0,"parameterNumber":3,"parameterNumberName":"V-component_of_WINDS"},"data":[0,0,0,0,0,0,0,0,0,0,0,0,0,0,0,0,0,0,0,0,0,0,0,0,0,0,0,0,0,0,0,0,0,0,0,0,0,0,0,0,0,0,0,0,0,0,0,0,0,0,0,0,0,0,0,0,0,0,5.1153,5.1158,0,5.1629,5.1635,5.164,5.1755,5.1751,5.1748,5.1745,5.2232,5.2248,5.2264,0,0,0,0,0,0,0,0,0,0,0,0,0,5.0338,5.0353,5.1153,5.1159,5.1165,5.1628,5.1635,5.1641,5.1755,5.1751,5.1747,5.1744,5.2227,5.2246,5.2265,0,0,0,0,0,0,0,0,0,0,0,0,0,5.0741,5.0357,5.1152,5.1277,5.1293,5.1627,5.1635,5.1643,5.1756,5.1751,5.1746,5.1742,5.2221,5.2244,5.2268,5.251,0,0,5.2341,5.2351,0,0,0,0,0,0,0,0,5.0718,5.0771,5.1253,5.1269,5.1288,5.1628,5.1527,5.1934,5.1757,5.158,5.1745,5.174,5.2035,5.2074,5.2174,5.2533,5.2554,5.2343,5.2357,5.2368,5.2374,0,0,0,0,0,0,0,5.069,5.0751,5.1341,5.126,5.1281,5.1309,5.1361,5.1604,5.1828,5.1595,5.1605,5.166,5.2044,5.215,5.2186,5.2561,5.2342,5.2363,5.2378,5.2387,5.3141,5.3146,0,0,0,0,0,0,5.064,5.0727,5.1326,5.1355,5.0985,5.1327,5.1385,5.1523,5.1826,5.1868,5.1663,5.1663,5.2112,5.2158,5.2203,5.2508,5.2367,5.239,5.2403,5.3135,5.3142,5.3148,0,0,0,0,0,0,5.0623,5.0693,5.1307,5.1044,5.1124,5.1346,5.15,5.1535,5.1642,5.1877,5.1918,5.1731,5.211,5.217,5.2433,5.2526,5.24,5.2422,5.3129,5.3137,5.3145,5.3117,0,0,0,0,0,0,5.0599,5.0686,5.0781,5.1045,5.1138,5.1529,5.1506,5.1548,5.1683,5.1688,5.1952,5.1991,5.2111,5.2396,5.2456,5.2557,5.2441,5.3121,5.3133,5.3143,5.311,5.3123,5.3134,0,0,0,0,0,5.0569,5.0755,5.0786,5.0857,5.1262,5.1534,5.1587,5.1721,5.169,5.1788,5.1938,5.1983,5.2505,5.2422,5.2491,5.26,5.3116,5.3129,5.3142,5.3105,5.3121,5.3134,0,0,0,0,0,0,5.0497,5.0792,5.083,5.1106,5.1294,5.1553,5.1681,5.1734,5.1935,5.1931,5.2088,5.2146,5.2399,5.2525,5.2428,5.2849,5.281,5.2837,5.2758,5.2775,5.2787,5.2753,5.2461,0,0,0,0,0,5.0512,5.071,5.0956,5.1176,5.1269,5.1457,5.1581,5.1668,5.1869,5.195,5.212,5.2313,5.252,5.2654,5.2858,5.3127,5.3186,5.3235,5.3247,5.3255,5.3278,5.3429,5.3454,5.319,5.319,5.319,0,0,5.0548,5.0733,5.0849,5.1166,5.1323,5.1522,5.1524,5.1736,5.1886,5.1982,5.2241,5.2371,5.2597,5.2864,5.299,5.2977,5.3363,5.3272,5.3277,5.3296,5.3445,5.347,5.3492,5.3199,5.3198,5.3196,0,0,5.0716,5.0875,5.1076,5.1232,5.1468,5.1592,5.1638,5.189,5.198,5.2242,5.2318,5.2496,5.2851,5.3009,5.3135,5.3356,5.3406,5.3418,5.3482,5.3627,5.3648,5.3667,5.3747,5.3774,5.3439,5.3439,5.3439,0,5.0731,5.1036,5.1172,5.1381,5.1518,5.1612,5.1816,5.1959,5.2249,5.2341,5.2321,5.2767,5.2925,5.323,5.3283,5.3382,5.3441,5.3391,5.3634,5.3655,5.3675,5.3753,5.3782,5.3439,5.3439,5.3439,5.3439,0,5.1043,5.1253,5.1386,5.1664,5.1815,5.2019,5.2185,5.2322,5.2393,5.2518,5.2782,5.2975,5.3219,5.3296,5.3369,5.3611,5.3596,5.3602,5.3567,5.3697,5.3774,5.3805,5.3439,5.3439,5.3439,5.3439,0,0,5.1184,5.1531,5.1578,5.1704,5.1969,5.2133,5.234,5.2578,5.2693,5.2887,5.3065,5.336,5.3368,5.3511,5.3601,5.3728,5.3891,5.372,5.3727,5.3747,5.417,5.4166,5.4198,5.3923,5.3929,5.3934,5.4152,0,5.1386,5.1762,5.1888,5.2199,5.2394,5.2483,5.2663,5.2844,5.2965,5.3147,5.328,5.3487,5.3481,5.3568,5.3697,5.3844,5.3979,5.3829,5.4091,5.4099,5.4035,5.4238,5.4235,5.4432,5.4182,5.4188,5.4191,0,5.1674,5.1873,5.2202,5.2441,5.2527,5.2687,5.2915,5.3087,5.3293,5.3372,5.3529,5.3608,5.3827,5.3774,5.4077,5.3972,5.4086,5.4173,5.4184,5.4217,5.4156,5.4279,5.4498,5.4528,5.4239,5.4235,5.4232,0,5.1745,5.2095,5.2338,5.2443,5.2726,5.2836,5.2959,5.316,5.3294,5.3491,5.358,5.3799,5.3921,5.4088,5.4224,5.4173,5.4515,5.4474,5.4587,5.4584,5.4659,5.4654,5.4902,5.4726,5.4725,5.4725,5.4724,0,5.196,5.2159,5.2374,5.2523,5.2748,5.2889,5.3107,5.3235,5.3412,5.3587,5.3675,5.3837,5.4005,5.4189,5.4296,5.4531,5.4584,5.4654,5.4681,5.4649,5.464,5.4728,5.4719,5.4733,5.4731,5.473,5.4728,0,5.2081,5.2232,5.2503,5.2748,5.2813,5.2968,5.3177,5.3325,5.3446,5.3667,5.3726,5.3919,5.4139,5.4289,5.4572,5.4644,5.4899,5.4922,5.483,5.4844,5.4949,5.4938,5.5267,5.5317,5.5103,5.5105,5.5106,0,5.221,5.2365,5.2625,5.2749,5.2872,5.307,5.3207,5.3349,5.3488,5.3732,5.385,5.4075,5.4265,5.4612,5.4776,5.4992,5.5023,5.5122,5.5056,5.5018,5.5027,5.5018,5.5034,5.5134,5.5136,5.5137,5.5138,0,5.2424,5.249,5.2684,5.2904,5.3065,5.3245,5.3426,5.3521,5.3695,5.3846,5.4072,5.4218,5.4505,5.4728,5.4959,5.5084,5.5141,5.5156,5.5195,5.5166,5.5107,5.5143,5.4861,5.515,5.5149,5.5148,5.5147,5.5147,5.2555,5.2697,5.2901,5.3114,5.3264,5.343,5.3581,5.372,5.3911,5.4157,5.4228,5.4463,5.4662,5.4977,5.5105,5.5291,5.5283,5.5337,5.5352,5.5364,5.5365,5.5073,5.5333,5.5333,5.5332,5.5332,5.5332,0,5.2775,5.291,5.3104,5.3354,5.352,5.3556,5.3756,5.3894,5.41,5.428,5.4463,5.4721,5.4937,5.5116,5.5339,5.5452,5.5484,5.5506,5.5501,5.5529,5.5359,5.5305,5.5477,5.5477,5.5477,5.5477,5.5477,5.5477,5.291,5.3151,5.3241,5.3556,5.369,5.3921,5.4033,5.4186,5.433,5.4615,5.4794,5.4909,5.5089,5.5324,5.5523,5.557,5.5649,5.5667,5.5719,5.5558,5.5541,5.5526,5.5476,5.5682,5.5682,5.5876,5.5877,5.5879]}]]